Tracking 17141 objects as of 6-July-2015
HD Live streaming from Space Station

ABS 3

Track ABS 3 now!
ABS 3 is classified as:


NORAD ID: 24901
Int'l Code: 1997-042A
Perigee: 35,774.6 km
Apogee: 35,811.6 km
Inclination: 3.6 °
Period: 1,436.1 minutes
Semi major axis: 42164 km
RCS: 10 m2 (large)
Launch date: August 19, 1997
Source: People's Republic of China (PRC)

Most powerful telecommunications satellite in service in the Asia-Pacific region; 30 C-band, 24 Ku-band transponders; 190 high fidelity channels and 50,000 simultaneous telephone links.
Your satellite tracking list
Your tracking list is empty





NASA's NSSDC Master Catalog

Two Line Element Set (TLE):
1 24901U 97042A   15186.04443194 -.00000040  00000-0  00000+0 0  9992
2 24901 003.5569 067.7523 0004380 045.3883 182.5225 01.00274134 65426

Source of the keplerian elements: AFSPC

N2YO: 226